WB3DCA Weather Reports


Display with metric or nautical units.
time (UTC)temp
F
wind
direction
speed
MPH
gust
MPH
rain 1hr
in
rain 24hr
in
rain mn
in
humidity
%
barometer
mb
20260504214555 70 243 4.0 10.0 0.00 0.00 0.00 35 1007.0
20260504214045 70 263 5.0 10.0 0.00 0.00 0.00 34 1007.0
20260504213545 70 248 5.0 10.0 0.00 0.00 0.00 34 1007.0
20260504213051 70 281 1.0 8.0 0.00 0.00 0.00 34 1006.9
20260504212543 70 0 2.0 10.0 0.00 0.00 0.00 36 1007.0
20260504212045 70 240 5.0 10.0 0.00 0.00 0.00 33 1007.1
20260504211552 71 248 5.0 9.0 0.00 0.00 0.00 33 1006.9
20260504211044 71 248 4.0 8.0 0.00 0.00 0.00 34 1006.8
20260504210545 70 256 3.0 9.0 0.00 0.00 0.00 34 1006.8
20260504210105 70 258 5.0 9.0 0.00 0.00 0.00 34 1006.8
20260504205541 70 244 5.0 10.0 0.00 0.00 0.00 34 1006.8
20260504205042 70 243 5.0 10.0 0.00 0.00 0.00 33 1006.8
20260504204559 71 234 4.0 11.0 0.00 0.00 0.00 33 1007.0
20260504204043 71 254 6.0 11.0 0.00 0.00 0.00 32 1006.8
20260504203542 72 205 4.0 10.0 0.00 0.00 0.00 32 1006.8
20260504203104 72 260 2.0 10.0 0.00 0.00 0.00 32 1006.8
20260504202542 72 229 2.0 6.0 0.00 0.00 0.00 31 1006.7
20260504202042 72 286 1.0 12.0 0.00 0.00 0.00 33 1006.7
20260504201546 72 289 3.0 12.0 0.00 0.00 0.00 33 1006.8
20260504201043 72 241 7.0 12.0 0.00 0.00 0.00 32 1007.0
20260504200542 72 257 3.0 11.0 0.00 0.00 0.00 31 1007.0
20260504200051 72 269 4.0 11.0 0.00 0.00 0.00 31 1006.9
20260504195541 73 245 4.0 8.0 0.00 0.00 0.00 33 1006.8
20260504195042 73 273 3.0 9.0 0.00 0.00 0.00 32 1006.9
20260504194555 73 269 3.0 11.0 0.00 0.00 0.00 31 1007.0
20260504194042 73 248 4.0 11.0 0.00 0.00 0.00 32 1007.1
20260504193543 73 250 5.0 10.0 0.00 0.00 0.00 30 1006.8
20260504193051 73 269 3.0 11.0 0.00 0.00 0.00 31 1007.0
20260504192545 73 277 3.0 11.0 0.00 0.00 0.00 30 1006.9
20260504192043 73 259 5.0 11.0 0.00 0.00 0.00 30 1007.0
20260504191552 73 224 3.0 9.0 0.00 0.00 0.00 31 1006.8
20260504191042 72 207 4.0 9.0 0.00 0.00 0.00 32 1007.0
20260504190543 73 312 4.0 10.0 0.00 0.00 0.00 31 1007.0
20260504190107 72 239 5.0 10.0 0.00 0.00 0.00 31 1007.0
20260504185541 72 236 4.0 10.0 0.00 0.00 0.00 32 1007.1
20260504185041 71 265 4.0 8.0 0.00 0.00 0.00 32 1007.1
20260504184551 71 271 3.0 11.0 0.00 0.00 0.00 32 1007.4
20260504184045 71 223 3.0 14.0 0.00 0.00 0.00 31 1007.2
20260504183542 71 263 6.0 14.0 0.00 0.00 0.00 31 1007.2
20260504183054 71 226 7.0 13.0 0.00 0.00 0.00 29 1007.1
20260504182543 72 250 3.0 13.0 0.00 0.00 0.00 30 1007.3
20260504182044 71 292 5.0 13.0 0.00 0.00 0.00 31 1007.2
20260504181553 72 250 4.0 11.0 0.00 0.00 0.00 31 1007.1
20260504181042 72 241 5.0 10.0 0.00 0.00 0.00 31 1007.3
20260504180544 72 232 3.0 11.0 0.00 0.00 0.00 31 1007.3
20260504180050 71 276 6.0 11.0 0.00 0.00 0.00 32 1007.3
20260504175543 71 245 5.0 12.0 0.00 0.00 0.00 33 1007.2
20260504175041 71 254 5.0 12.0 0.00 0.00 0.00 33 1007.6
20260504174555 71 244 4.0 12.0 0.00 0.00 0.00 32 1007.5
20260504174043 71 250 6.0 12.0 0.00 0.00 0.00 33 1007.4
20260504173543 71 244 5.0 11.0 0.00 0.00 0.00 34 1007.5
20260504173049 71 275 3.0 12.0 0.00 0.00 0.00 34 1007.4
20260504172542 70 235 5.0 12.0 0.00 0.00 0.00 32 1007.5
20260504172042 70 240 5.0 12.0 0.00 0.00 0.00 32 1007.6
20260504171551 70 255 7.0 15.0 0.00 0.00 0.00 32 1007.5
20260504171043 70 257 8.0 15.0 0.00 0.00 0.00 31 1007.6
20260504170543 71 236 3.0 13.0 0.00 0.00 0.00 34 1007.6
20260504151041 65 265 4.0 11.0 0.00 0.00 0.00 40 1008.7
20260504150541 64 246 4.0 13.0 0.00 0.00 0.00 40 1008.7
20260504141042 62 273 3.0 9.0 0.00 0.00 0.00 44 1009.4
20260504140542 62 271 2.0 8.0 0.00 0.00 0.00 43 1009.4
20260504130539 57 234 2.0 9.0 0.00 0.00 0.00 51 1009.8
20260504110544 47 257 0.0 2.0 0.00 0.00 0.00 66 1010.7
20260504100543 43 254 2.0 4.0 0.00 0.00 0.00 68 1010.7
20260504081559 41 0 0.0 0.0 0.00 0.00 0.00 69 1010.3
20260504081041 41 0 0.0 0.0 0.00 0.00 0.00 68 1010.3
20260504080541 41 0 0.0 0.0 0.00 0.00 0.00 68 1010.2
20260504050539 38 0 0.0 0.0 0.00 0.00 0.00 70 1010.6
20260504050108 38 0 0.0 0.0 0.00 0.00 0.00 70 1010.6
20260504045544 38 0 0.0 0.0 0.00 0.00 0.00 70 1010.6
20260504045044 38 0 0.0 0.0 0.00 0.00 0.00 71 1010.6
20260504044551 37 0 0.0 0.0 0.00 0.00 0.00 72 1010.6
20260504044041 37 0 0.0 0.0 0.00 0.00 0.00 72 1010.6
20260504043542 37 0 0.0 0.0 0.00 0.00 0.00 73 1010.6
20260504043101 37 0 0.0 0.0 0.00 0.00 0.00 73 1010.6
20260504042542 37 0 0.0 0.0 0.00 0.00 0.00 72 1010.4
20260504042043 37 0 0.0 0.0 0.00 0.00 0.00 73 1010.5
20260504041549 37 0 0.0 0.0 0.00 0.00 0.00 72 1010.6
20260504041042 37 0 0.0 0.0 0.00 0.00 0.00 73 1010.5
20260504040541 37 0 0.0 0.0 0.00 0.00 0.00 73 1010.5
20260504040055 37 0 0.0 0.0 0.00 0.00 0.00 73 1010.4
20260504035542 37 0 0.0 0.0 0.00 0.00 0.00 72 1010.4
20260504035043 37 0 0.0 0.0 0.00 0.00 0.00 72 1010.4
20260504034549 38 0 0.0 0.0 0.00 0.00 0.00 71 1010.4
20260504034042 37 0 0.0 0.0 0.00 0.00 0.00 72 1010.3
20260504033544 37 0 0.0 0.0 0.00 0.00 0.00 73 1010.3
20260504033056 36 0 0.0 0.0 0.00 0.00 0.00 74 1010.4
20260504032543 36 0 0.0 0.0 0.00 0.00 0.00 75 1010.3
20260504032047 36 0 0.0 0.0 0.00 0.00 0.00 76 1010.3
20260504031557 36 0 0.0 0.0 0.00 0.00 0.00 76 1010.3
20260504031042 36 0 0.0 0.0 0.00 0.00 0.00 75 1010.3
20260504030541 36 0 0.0 0.0 0.00 0.00 0.00 75 1010.3
20260504030048 37 0 0.0 0.0 0.00 0.00 0.00 76 1010.4
20260504025542 36 0 0.0 0.0 0.00 0.00 0.00 75 1010.4
20260504025043 36 0 0.0 0.0 0.00 0.00 0.00 75 1010.3
20260504024545 37 0 0.0 0.0 0.00 0.00 0.00 75 1010.3
20260504024043 37 0 0.0 0.0 0.00 0.00 0.00 74 1010.3
20260504023543 37 0 0.0 0.0 0.00 0.00 0.00 73 1010.2
20260504023045 37 0 0.0 0.0 0.00 0.00 0.00 73 1010.2
20260504022543 37 0 0.0 0.0 0.00 0.00 0.00 72 1010.3
20260504022043 38 0 0.0 0.0 0.00 0.00 0.00 72 1010.2
20260504021547 38 0 0.0 0.0 0.00 0.00 0.00 72 1010.2
20260504021042 38 0 0.0 0.0 0.00 0.00 0.00 72 1010.1
20260504020622 38 0 0.0 0.0 0.00 0.00 0.00 72 1010.1
20260504020048 39 0 0.0 0.0 0.00 0.00 0.00 71 1010.1
20260504015543 39 0 0.0 0.0 0.00 0.00 0.00 70 1010.0
20260504015043 39 0 0.0 0.0 0.00 0.00 0.00 70 1010.0
20260504014556 39 0 0.0 0.0 0.00 0.00 0.00 69 1010.0
20260504014044 40 0 0.0 0.0 0.00 0.00 0.00 68 1009.9
20260504013542 41 0 0.0 0.0 0.00 0.00 0.00 66 1009.8
20260504013047 41 0 0.0 0.0 0.00 0.00 0.00 65 1009.8
20260504012545 42 0 0.0 0.0 0.00 0.00 0.00 63 1009.8
20260504012043 42 0 0.0 0.0 0.00 0.00 0.00 62 1009.7
20260504011547 42 0 0.0 0.0 0.00 0.00 0.00 62 1009.7
20260504011042 42 0 0.0 0.0 0.00 0.00 0.00 62 1009.7
20260504010542 43 0 0.0 0.0 0.00 0.00 0.00 61 1009.6
20260504010110 43 0 0.0 0.0 0.00 0.00 0.00 59 1009.5
20260504005543 43 0 0.0 0.0 0.00 0.00 0.00 59 1009.4
20260504005043 44 0 0.0 0.0 0.00 0.00 0.00 58 1009.3
20260504004546 44 0 0.0 0.0 0.00 0.00 0.00 57 1009.1
20260504004046 44 0 0.0 0.0 0.00 0.00 0.00 56 1009.1
20260504003542 44 0 0.0 0.0 0.00 0.00 0.00 56 1009.1
20260504003048 45 0 0.0 0.0 0.00 0.00 0.00 55 1009.1
20260504002542 45 0 0.0 0.0 0.00 0.00 0.00 55 1009.1
20260504002042 45 0 0.0 0.0 0.00 0.00 0.00 55 1009.0
20260504001600 45 0 0.0 0.0 0.00 0.00 0.00 54 1009.1
20260504001042 46 0 0.0 1.0 0.00 0.00 0.00 54 1008.9
20260504000542 46 0 0.0 3.0 0.00 0.00 0.00 53 1008.9
20260504000052 46 0 0.0 3.0 0.00 0.00 0.00 53 1008.8
20260503235547 46 0 0.0 3.0 0.00 0.00 0.00 53 1008.9
20260503235043 47 0 0.0 4.0 0.00 0.00 0.00 53 1008.8
20260503234541 47 0 1.0 4.0 0.00 0.00 0.00 53 1008.8
20260503234041 47 0 0.0 3.0 0.00 0.00 0.00 52 1008.8
20260503233543 47 0 1.0 7.0 0.00 0.00 0.00 52 1008.7
20260503233059 47 167 1.0 7.0 0.00 0.00 0.00 51 1008.6
20260503232542 48 324 0.0 5.0 0.00 0.00 0.00 52 1008.6
20260503232041 48 211 1.0 5.0 0.00 0.00 0.00 51 1008.5
20260503231554 48 88 0.0 4.0 0.00 0.00 0.00 51 1008.4
20260503231043 48 184 0.0 4.0 0.00 0.00 0.00 51 1008.3
20260503230543 48 53 1.0 10.0 0.00 0.00 0.00 50 1008.4
20260503230054 49 279 1.0 11.0 0.00 0.00 0.00 49 1008.3
20260503225541 49 15 2.0 11.0 0.00 0.01 0.00 51 1008.2
20260503225043 49 292 1.0 11.0 0.00 0.01 0.00 51 1008.2
20260503224554 49 170 1.0 4.0 0.00 0.01 0.00 51 1008.2
20260503224043 49 61 0.0 9.0 0.00 0.01 0.00 48 1008.1
20260503223543 49 300 2.0 9.0 0.00 0.01 0.00 49 1008.0
20260503223051 49 296 2.0 6.0 0.00 0.01 0.00 46 1007.9
20260503222542 50 41 1.0 10.0 0.00 0.01 0.00 48 1007.8
20260503222040 50 281 3.0 10.0 0.00 0.01 0.00 50 1007.7
20260503221557 50 13 1.0 6.0 0.00 0.01 0.00 46 1007.7
20260503221043 50 273 1.0 6.0 0.00 0.01 0.00 50 1007.6
20260503220543 50 130 1.0 6.0 0.00 0.01 0.00 49 1007.6
20260503215543 50 229 1.0 11.0 0.00 0.06 0.00 48 1007.6
20260503215042 50 284 3.0 11.0 0.00 0.06 0.00 48 1007.5